Location: Austin
(30.3000°N, 97.7500°W)
Time: 07:14:57
(UTC-05:00)

Cosmos 1842 Rocket - Pass Details

Date: 19 September 2023
Orbit: 604 x 630 km, 82.5° (Epoch: 25 September)

Event Time Altitude Azimuth Distance (km) Brightness Sun altitude
Rises 06:43:14 0° 204° (SSW) 2,883 6.7 -8.2°
Reaches altitude 10° 06:45:35 10° 213° (SSW) 1,985 5.8 -7.7°
Maximum altitude 06:49:37 36° 279° (W) 1,002 4.2 -6.9°
Drops below altitude 10° 06:53:43 10° 347° (NNW) 2,007 6.1 -6.0°
Sets 06:56:07 0° 356° (N) 2,921 7.0 -5.5°
